{"data":{"norad_id":67523,"intl_designator":"2026-013B","name":"HULIANWANG DIGUI-147","alt_names":[],"object_type":"PAYLOAD","status":"ACTIVE","operator":null,"country":"PRC","launch_date":"2026-01-19","launch_site_code":"WSC","launch_vehicle":null,"mission":null,"orbit_class":"UNKNOWN","rcs_meters":null,"size_class":null,"mass_kg":null,"dimensions":null,"purposes":[],"wikipedia_slug":null,"has_3d_model":false,"image_url":null,"decayed_at":null,"tle_current":{"epoch":"2026-05-25T01:41:34.876320Z","epoch_age_seconds":72960,"freshness":"FRESH","line1":"1 67523U 26013B   26145.07054255 -.00000085  00000+0  83896-4 0  9992","line2":"2 67523  50.0052  78.6878 0000871  24.7542 335.3372 13.29328882 16976","mean_motion":13.29328882,"eccentricity":8.71e-5,"inclination_deg":50.0052,"raan_deg":78.6878,"arg_perigee_deg":24.7542,"mean_anomaly_deg":335.3372,"bstar":8.3896e-5,"rev_number":1697,"period_min":108.32533765711,"perigee_km":1148.6400527407,"apogee_km":1149.9513315157,"semimajor_km":7527.4326921282,"source":"CELESTRAK","updated_at":"2026-05-25T13:38:07.049525Z"}}}